Terminal Aerodrome Forecast
Issued by NWS Knoxville/Tri Cities, TN

Home | Current Version | Previous Version | Text Only | Print | Product List | Glossary On
Versions: 1 2 3 4 5 6 7 8 9 10 11 12 13 14 15 16 17 18 19 20 21 22 23 24 25 26 27 28 29 30 31 32 33 34 35
000
FTUS44 KMRX 280527
TAFCHA
TAF
KCHA 280527Z 2806/0106 01007KT P6SM BKN120
     FM281000 01004KT P6SM SCT025 BKN100
     FM281800 VRB04KT P6SM SCT035 BKN120=

USA.gov is the U.S. government's official web portal to all federal, state and local government web resources and services.